Back to catalog

UMBRA-07

AliveScienceSSO
NORAD 58297·PAYLOAD·🇺🇸 United States

Launched Nov 11, 2023 from Vandenberg Space Force Base

Loading…

Next Passes (next 24 hours)

TLE

FreshSource: Space-Track

Epoch: Sep 14, 2026, 13:47 UTC

1 58297U 23174AT  26257.57459276  .00007547  00000-0  46155-3 0  9992
2 58297  97.3706 310.0027 0004496 121.0643 239.1029 15.10506338156907

Track UMBRA-07 in real time with AllMySat

Download on the App Store